FW5298 Weather Reports


time (UTC)temp
C
wind
direction
speed
KPH
gust
KPH
rain 1hr
cm
rain 24hr
cm
rain mn
cm
humidity
%
barometer
mb
20260508054022 10 180 4.8 11.3 0.00 0.00 0.00 82 1013.2
20260508053020 10 181 6.4 11.3 0.00 0.00 0.00 82 1013.2
20260508052018 10 180 6.4 9.7 0.00 0.00 0.00 82 1013.2
20260508051016 10 182 4.8 14.5 0.00 0.00 0.00 83 1013.3
20260508050034 10 176 3.2 9.7 0.00 0.00 0.00 83 1013.3
20260508045012 9 192 3.2 11.3 0.00 0.00 0.00 83 1013.3
20260508044010 9 178 4.8 11.3 0.00 0.00 0.00 83 1013.3
20260508043008 9 183 4.8 9.7 0.00 0.00 0.00 82 1013.3
20260508042006 9 178 4.8 22.5 0.00 0.00 0.00 82 1013.2
20260508041004 9 178 6.4 20.9 0.00 0.00 0.00 83 1013.1
20260508040001 9 188 3.2 19.3 0.00 0.00 0.00 83 1013.1
20260508035000 8 186 3.2 8.0 0.00 0.00 0.00 83 1013.0
20260508033959 8 188 3.2 9.7 0.00 0.00 0.00 82 1013.0
20260508032958 8 182 3.2 11.3 0.00 0.00 0.00 82 1013.1
20260508032014 8 212 3.2 14.5 0.00 0.00 0.00 82 1013.0
20260508030952 8 190 3.2 14.5 0.00 0.00 0.00 82 1012.9
20260508030011 8 187 3.2 9.7 0.00 0.00 0.00 81 1012.8
20260508024949 8 195 3.2 6.4 0.00 0.00 0.00 81 1012.6
20260508023946 8 190 3.2 9.7 0.00 0.00 0.00 81 1012.5
20260508022945 8 190 3.2 9.7 0.00 0.00 0.00 80 1012.5
20260508021942 8 178 3.2 9.7 0.00 0.00 0.00 80 1012.6
20260508020941 8 184 4.8 16.1 0.00 0.00 0.00 80 1012.5
20260508015937 9 178 6.4 9.7 0.00 0.00 0.00 80 1012.5
20260508014936 9 191 3.2 9.7 0.00 0.00 0.00 79 1012.5
20260508013934 9 183 4.8 9.7 0.00 0.00 0.00 79 1012.5
20260508012932 9 175 4.8 11.3 0.00 0.00 0.00 79 1012.4
20260508012010 9 176 4.8 9.7 0.00 0.00 0.00 79 1012.5
20260508010927 9 178 4.8 9.7 0.00 0.00 0.00 79 1012.5
20260508005926 9 178 6.4 9.7 0.00 0.00 0.00 78 1012.4
20260508004924 10 172 6.4 9.7 0.00 0.00 0.00 78 1012.4
20260508003942 10 181 4.8 9.7 0.00 0.00 0.00 78 1012.3
20260508002940 10 181 4.8 14.5 0.00 0.00 0.00 77 1012.3
20260508001938 10 183 4.8 9.7 0.00 0.00 0.00 77 1012.4
20260508000917 10 176 3.2 9.7 0.00 0.00 0.00 77 1012.3
20260507235934 10 178 4.8 11.3 0.00 0.00 0.00 77 1012.3
20260507234913 10 176 6.4 14.5 0.00 0.00 0.00 76 1012.3
20260507233910 10 176 6.4 11.3 0.00 0.00 0.00 76 1012.4
20260507232908 10 176 6.4 12.9 0.00 0.00 0.00 75 1012.4
20260507231925 10 174 6.4 14.5 0.00 0.00 0.00 75 1012.4
20260507230904 10 173 6.4 11.3 0.00 0.00 0.00 75 1012.5
20260507225902 11 178 6.4 17.7 0.00 0.00 0.00 74 1012.5
20260507224859 11 176 6.4 11.3 0.00 0.00 0.00 74 1012.6
20260507223938 11 172 6.4 12.9 0.00 0.00 0.00 73 1012.6
20260507222856 11 170 6.4 9.7 0.00 0.00 0.00 73 1012.6
20260507221854 11 180 6.4 27.4 0.00 0.00 0.00 72 1012.6
20260507220852 11 177 6.4 17.7 0.00 0.00 0.00 71 1012.7
20260507215850 11 171 8.0 14.5 0.00 0.00 0.00 71 1012.6
20260507214848 12 60 1.6 14.5 0.00 0.00 0.00 70 1012.6
20260507213846 12 181 6.4 14.5 0.00 0.00 0.00 70 1012.6
20260507212844 12 170 6.4 12.9 0.00 0.00 0.00 69 1012.6
20260507211842 12 169 8.0 16.1 0.00 0.00 0.00 68 1012.5
20260507210840 12 183 3.2 9.7 0.00 0.00 0.00 68 1012.7
20260507205838 13 169 6.4 17.7 0.00 0.00 0.00 67 1012.5
20260507204839 13 173 8.0 22.5 0.00 0.00 0.00 67 1012.3
20260507203834 13 166 8.0 19.3 0.00 0.00 0.00 66 1012.4
20260507202832 13 171 8.0 17.7 0.00 0.00 0.00 66 1012.3
20260507201831 13 172 6.4 14.5 0.00 0.00 0.00 65 1012.5
20260507200827 14 175 6.4 14.5 0.00 0.00 0.00 64 1012.5
20260507195826 14 177 6.4 11.3 0.00 0.00 0.00 64 1012.6
20260507194823 14 180 3.2 9.7 0.00 0.00 0.00 63 1012.6
20260507193822 15 195 3.2 17.7 0.00 0.00 0.00 62 1012.6
20260507192820 15 180 3.2 11.3 0.00 0.00 0.00 62 1012.5
20260507191817 15 177 4.8 17.7 0.00 0.00 0.00 61 1012.4
20260507190815 16 188 3.2 14.5 0.00 0.00 0.00 60 1012.4
20260507185813 16 178 4.8 11.3 0.00 0.00 0.00 59 1012.4
20260507184833 16 175 6.4 12.9 0.00 0.00 0.00 58 1012.4
20260507183810 17 181 6.4 17.7 0.00 0.00 0.00 57 1012.3
20260507182808 17 193 3.2 9.7 0.00 0.00 0.00 57 1012.3
20260507181807 17 178 6.4 17.7 0.00 0.00 0.00 56 1012.2
20260507180824 18 172 6.4 11.3 0.00 0.00 0.00 55 1012.1
20260507175802 18 174 8.0 14.5 0.00 0.00 0.00 54 1012.1
20260507174800 18 174 6.4 14.5 0.00 0.00 0.00 53 1012.0
20260507173817 19 170 8.0 14.5 0.00 0.00 0.00 52 1011.9
20260507172756 19 177 6.4 12.9 0.00 0.00 0.00 51 1011.9
20260507171754 20 184 6.4 11.3 0.00 0.00 0.00 50 1011.9
20260507170752 20 180 6.4 12.9 0.00 0.00 0.00 48 1011.8
20260507165810 20 174 8.0 16.1 0.00 0.00 0.00 48 1011.8
20260507164748 20 172 8.0 16.1 0.00 0.00 0.00 48 1011.8
20260507163746 21 172 9.7 24.1 0.00 0.00 0.00 47 1011.6
20260507162744 21 176 6.4 14.5 0.00 0.00 0.00 47 1011.6
20260507161742 21 166 9.7 20.9 0.00 0.00 0.00 46 1011.7
20260507160740 21 176 9.7 30.6 0.00 0.00 0.00 46 1011.7
20260507155739 21 172 8.0 14.5 0.00 0.00 0.00 45 1011.7
20260507154736 22 168 8.0 14.5 0.00 0.00 0.00 45 1011.8
20260507153734 22 169 11.3 24.1 0.00 0.00 0.00 44 1011.8
20260507152732 22 172 9.7 19.3 0.00 0.00 0.00 43 1011.8
20260507151731 22 177 11.3 38.6 0.00 0.00 0.00 43 1011.8
20260507150727 22 174 8.0 24.1 0.00 0.00 0.00 43 1011.8
20260507145725 22 174 11.3 19.3 0.00 0.00 0.00 42 1011.8
20260507144724 22 169 9.7 19.3 0.00 0.00 0.00 42 1011.9
20260507143721 22 169 9.7 19.3 0.00 0.00 0.00 42 1012.0
20260507142740 22 170 9.7 17.7 0.00 0.00 0.00 41 1012.1
20260507141717 23 178 9.7 19.3 0.00 0.00 0.00 40 1012.1
20260507140716 23 168 9.7 20.9 0.00 0.00 0.00 39 1012.2
20260507135714 23 176 11.3 19.3 0.00 0.00 0.00 39 1012.2
20260507134711 23 164 9.7 16.1 0.00 0.00 0.00 39 1012.2
20260507133730 23 178 6.4 17.7 0.00 0.00 0.00 39 1012.2
20260507132710 23 178 9.7 19.3 0.00 0.00 0.00 39 1012.2
20260507131746 23 178 9.7 32.2 0.00 0.00 0.00 39 1012.3
20260507130704 23 177 9.7 14.5 0.00 0.00 0.00 39 1012.4
20260507125723 23 170 9.7 25.7 0.00 0.00 0.00 38 1012.5
20260507124700 23 171 9.7 17.7 0.00 0.00 0.00 38 1012.7
20260507123658 23 174 9.7 17.7 0.00 0.00 0.00 38 1012.8
20260507122655 23 172 8.0 17.7 0.00 0.00 0.00 39 1012.7
20260507121654 23 178 6.4 17.7 0.00 0.00 0.00 38 1012.8
20260507120733 23 172 8.0 19.3 0.00 0.00 0.00 38 1013.0
20260507115650 23 164 8.0 19.3 0.00 0.00 0.00 38 1012.9
20260507114648 23 178 6.4 32.2 0.00 0.00 0.00 38 1013.1
20260507113646 23 175 8.0 19.3 0.00 0.00 0.00 37 1013.2
20260507112644 23 170 9.7 17.7 0.00 0.00 0.00 37 1013.2
20260507111642 23 177 9.7 25.7 0.00 0.00 0.00 38 1013.2
20260507110640 23 177 9.7 25.7 0.00 0.00 0.00 37 1013.2
20260507105638 23 180 8.0 14.5 0.00 0.00 0.00 37 1013.2
20260507104636 23 175 9.7 17.7 0.00 0.00 0.00 37 1013.2
20260507103634 22 173 8.0 19.3 0.00 0.00 0.00 38 1013.2
20260507102632 22 177 8.0 27.4 0.00 0.00 0.00 39 1013.3
20260507101630 22 178 9.7 22.5 0.00 0.00 0.00 38 1013.4
20260507100628 22 176 8.0 19.3 0.00 0.00 0.00 38 1013.4
20260507095626 22 178 6.4 17.7 0.00 0.00 0.00 38 1013.4
20260507094644 22 183 6.4 32.2 0.00 0.00 0.00 39 1013.5
20260507093622 21 168 9.7 19.3 0.00 0.00 0.00 39 1013.5
20260507092621 21 175 9.7 20.9 0.00 0.00 0.00 38 1013.5
20260507091618 21 175 9.7 24.1 0.00 0.00 0.00 39 1013.5
20260507090616 21 165 9.7 17.7 0.00 0.00 0.00 39 1013.6
20260507085614 21 163 9.7 22.5 0.00 0.00 0.00 39 1013.5
20260507084632 21 168 9.7 22.5 0.00 0.00 0.00 39 1013.5
20260507083610 21 165 11.3 19.3 0.00 0.00 0.00 39 1013.5
20260507082608 20 174 6.4 17.7 0.00 0.00 0.00 42 1013.5
20260507081607 20 165 9.7 22.5 0.00 0.00 0.00 41 1013.6
20260507080624 20 165 11.3 25.7 0.00 0.00 0.00 41 1013.6
20260507075601 20 171 9.7 17.7 0.00 0.00 0.00 43 1013.6
20260507074600 19 169 9.7 19.3 0.00 0.00 0.00 43 1013.7
20260507073558 18 170 9.7 17.7 0.00 0.00 0.00 45 1013.7
20260507072617 18 171 8.0 14.5 0.00 0.00 0.00 49 1013.7
20260507071553 18 180 8.0 22.5 0.00 0.00 0.00 51 1013.6
20260507070552 17 166 6.4 17.7 0.00 0.00 0.00 51 1013.6
20260507065552 17 174 6.4 12.9 0.00 0.00 0.00 51 1013.6
20260507064548 17 172 6.4 11.3 0.00 0.00 0.00 52 1013.6
20260507063546 16 175 6.4 25.7 0.00 0.00 0.00 52 1013.6
20260507062544 16 177 6.4 11.3 0.00 0.00 0.00 53 1013.6
20260507061542 16 169 6.4 14.5 0.00 0.00 0.00 53 1013.6
20260507060540 16 180 6.4 16.1 0.00 0.00 0.00 53 1013.6
20260507055537 16 176 4.8 11.3 0.00 0.00 0.00 56 1013.5
20260507054536 15 178 4.8 11.3 0.00 0.00 0.00 57 1013.6